Regional Weather Roundup
Issued by NWS Charleston, SC

Current Version | Previous Version | Text Only | Print | Product List | Glossary On
Versions: 1 2 3 4 5 6 7 8 9 10 11 12 13 14 15 16 17 18 19 20 21 22 23 24 25 26 27 28 29 30 31 32 33 34 35 36 37 38 39 40 41 42 43 44 45 46 47 48 49 50
000 ASUS42 KCHS 221925 RWRCHS REGIONAL WEATHER ROUNDUP NATIONAL WEATHER SERVICE CHARLESTON SC 300 PM EDT FRI AUG 22 2014 NOTE: "FAIR" INDICATES FEW OR NO CLOUDS BELOW 12,000 FEET WITH NO SIGNIFICANT WEATHER AND/OR OBSTRUCTIONS TO VISIBILITY. NOT ALL STATIONS ARE QUALITY CONTROLLED BY THE NATIONAL WEATHER SERVICE. USE DATA WITH CAUTION...ESPECIALLY DEWPOINT OBSERVATIONS. SCZ027-030-031-034>040-042>050-222000- ...SOUTH CAROLINA... CITY SKY/WX TMP DP RH WIND PRES REMARKS N CHARLESTON MOSUNNY 98 71 41 NW9 29.99F HX 106 WATERFRONT PRK N/A 95 N/A N/A S6 N/A FORT JOHNSON NOT AVBL MOUNT PLEASANT FAIR 95 79 59 S13 29.97F HX 112 JOHNS ISLAND PTCLDY 93 81 66 S10 29.99F HX 113 PINOPOLIS N/A 99 73 44 N2 29.91F HX 109 MONCKS CORNER N/A 97 77 52 W3 29.97F HX 112 SUMMERVILLE FAIR 99 70 39 W6 29.99F HX 105 BEAUFORT MCAS PTSUNNY 99 70 38 CALM 29.99F HX 106 BEAUFORT ARPT FAIR 97 72 44 W8 29.98F HX 105 HILTON HEAD IS MOSUNNY 93 79 62 SE5 30.01F HX 110 GEORGETOWN NOT AVBL WALTERBORO PTCLDY 99 63 30 W3 30.00F HX 100 ORANGEBURG MOSUNNY 98 67 36 W10 29.99F HX 102 BARNWELL FAIR 99 66 34 W10 30.00F HX 102 AIKEN FAIR 95 72 46 N10G22 30.04F HX 103 MANNING FAIR 99 70 39 NW5 29.97F HX 105 KINGSTREE NOT AVBL COLUMBIA PTSUNNY 96 64 34 VRB6 29.99F HX 98 SUMTER MOSUNNY 96 69 40 W8 29.98F HX 102 FLORENCE SUNNY 96 67 38 W8 29.98F HX 100 MYRTLE BEACH MOSUNNY 93 75 55 S12 29.98F HX 104 N MYRTLE BEACH MOSUNNY 90 76 63 VRB7 29.98F HX 101 $$ GAZ063-065-086>088-099>101-113>116-118-119-134-136>141-150-222000- ...GEORGIA... CITY SKY/WX TMP DP RH WIND PRES REMARKS SAVANNAH ARPT MOSUNNY 99 70 38 VRB6 30.01F HX 106 HUNTER AAF SUNNY 98 71 42 W8 29.99F HX 106 FORT STEWART SUNNY 99 69 37 VRB7 30.00F HX 105 STATESBORO NOT AVBL SYLVANIA CLEAR 97 72 44 W10 30.01F HX 106 CLAXTON FAIR 99 73 44 NW7 30.00F HX 109 THOMSON MOSUNNY 98 76 49 NW9 30.05F HX 111 AUGUSTA-BUSH MOSUNNY 96 69 41 NW9 29.99F HX 102 AUGUSTA-DANIEL MOSUNNY 98 68 37 NW9 30.02F HX 103 SWAINSBORO FAIR 100 70 37 N8G17 30.01F HX 107 VIDALIA N/A 99 70 39 N9 30.01F HX 105 ALMA SUNNY 96 69 41 W9 30.03F HX 102 WAYCROSS SUNNY 100 74 42 NW5 30.02F HX 112 JESUP N/A 99 75 47 SW3 30.01F HX 111 BRUNSWICK SUNNY 99 66 34 W8 30.01F HX 102 SAINT SIMONS MOSUNNY 92 78 63 SE10 30.01F HX 107 $$ SCZ027-028-034-036>038-045-046-048>050-GAZ119-141-222000- ...LAKE AND SUPPLEMENTAL COASTAL OBSERVATIONS... STATION/POSITION TIME TEMP WIND PRES WAVE SWELL AIR SEA DIR/SP/G HT/PER HT/PER/DIR (UTC) (F) (DEG/KT/KT) (MB) (FT/S) (FT/S/D) UPR LAKE MARION NOT AVBL WINYAH BAY 1900 92 150/ 9 1015.0S LAKE MURRAY 1900 92 190/ 6/ 7 1015.2F ACE BASIN NERRS 1900 96 320/ 2 1016.0F FORT PULASKI 1900 94 280/ 5/ 5 1016.1F SAPELO ISLAND 1900 83 180/ 14 1017.0F $$ ANZ835-935-AMZ111-154-330-350-352-354-374-450-454-472-222000- ...C-MAN AND BUOY OBSERVATIONS... STATION/POSITION TIME TEMP WIND PRES WAVE SWELL AIR SEA DIR/SP/G HT/PER HT/PER/DIR (UTC) (F) (DEG/KT/KT) (MB) (FT/S) (FT/S/D) FOLLY BEACH CMAN 1900 89 190/ 12/ 14 1016.0F BUOY 41004 1900 85 87 180/ 6/ 8 1015.6F 2/ 9 2/ 9 BUOY 41008 1900 87 89 180/ 4/ 6 1016.6F 1/ 8 5E ST. MARYS GA 1900 86 N/A 1/ 9 FRYING PAN BUOY NOT AVBL BUOY 41025 1900 81 260/ 10/ 14 1013.8F 2/ 8 2/ 50/ 8 CAPE LOOKOUT NC 1900 85 230/ 11/ 12 1014.2F BUOY 41002 1830 82 83 250/ 14/ 17 1016.6F 2/ 9 2/120/ 9 BUOY 41010 1900 84 87 220/ 2/ 4 1018.0F 1/ 7 2/130/ 7 BUOY 41012 NOT AVBL ST AUGUSTINE FL 1900 82 130/ 7/ 7 1017.8F CAPERS NEARSHORE 1800 89 190/ 10/ 12 N/A FRIPP NEARSHORE NOT AVBL $$

USA.gov is the U.S. government's official web portal to all federal, state and local government web resources and services.